Skip Page Navigation
NASA JPL Caltech
NASA Logo - Jet Propulsion Laboratory + View the NASA Portal
+ Center for Near-Earth Object Studies
JPL Home Earth Solar System Stars & Galaxies Technology
JPL Solar System Dynamics
BODIES ORBITS EPHEMERIDES TOOLS PHYSICAL DATA DISCOVERY FAQ SITE MAP
JPL Small-Body Database Browser
Search: [ help ]  
(2008 TO10)
Classification: Mars-crossing Asteroid          SPK-ID: 3430413
Ephemeris | Orbit Diagram | Orbital Elements | Mission Design | Physical Parameters | Close-Approach Data ]

[ show orbit diagram ]
Orbital Elements at Epoch 2459200.5 (2020-Dec-17.0) TDB
Reference: JPL 4 (heliocentric ecliptic J2000)
 Element Value Uncertainty (1-sigma)   Units 
e .5614800953768984 7.521e-06  
a 3.022432030100988 5.4374e-05 au
q 1.325396605569693 1.4045e-06 au
i 13.3651446842798 8.2708e-05 deg
node 354.588008331577 0.00016114 deg
peri 67.14870535253438 0.0004974 deg
M 105.7532626175386 0.022526 deg
tp 2458636.700721969481
(2019-Jun-02.20072197)
0.10488 TDB
period 1919.257477899559
5.25
0.051791
0.0001418
d
yr
n .1875725399772755 5.0617e-06 deg/d
Q 4.719467454632284 8.4904e-05 au
  Orbit Determination Parameters
   # obs. used (total)      70  
   data-arc span      120 days  
   first obs. used      2008-10-06  
   last obs. used      2009-02-03  
   planetary ephem.      DE441  
   SB-pert. ephem.      SB441-N16  
   condition code      4  
   norm. resid. RMS      .53614  
   source      ORB  
   producer      Otto Matic  
   solution date      2021-Apr-15 01:58:54  

Additional Information
 Earth MOID = .40925 au 
 Jupiter MOID = 1.30939 au 
 T_jup = 2.949 
[ show covariance matrix ]

Ephemeris | Orbit Diagram | Orbital Elements | Mission Design | Physical Parameters | Close-Approach Data ]

Physical Parameter Table
Parameter Symbol Value Units Sigma Reference Notes
absolute magnitude H 19.0   n/a MPO152511  

[ show close-approach data ]
Ephemeris | Orbit Diagram | Orbital Elements | Mission Design | Physical Parameters | Close-Approach Data ]
ABOUT SSD CREDITS/AWARDS PRIVACY/COPYRIGHT GLOSSARY LINKS
FirstGov 2021-May-06 23:30 UT
(server date/time)  
NASA Home Page
Site Manager:   Ryan S. Park
Webmaster  Alan B. Chamberlin